Regional Weather Roundup
Issued by NWS Albany, NY

Home | Current Version | Previous Version | Text Only | Print | Product List | Glossary On
Versions: 1 2 3 4 5 6 7 8 9 10 11 12 13 14 15 16 17 18 19 20 21 22 23 24 25 26 27 28 29 30 31 32 33 34 35 36 37 38 39 40 41 42 43 44 45 46 47 48 49 50
000
ASUS41 KALY 282010
RWRALY

NEW YORK STATE HOURLY WEATHER ROUNDUP
NATIONAL WEATHER SERVICE ALBANY NY
400 PM EDT THU APR 28 2016

NOTE: "FAIR" INDICATES FEW OR NO CLOUDS BELOW 12,000 FEET WITH NO
SIGNIFICANT WEATHER AND/OR NO OBSTRUCTIONS TO VISIBILITY.

NYZ032-033-038>043-046>054-057>066-NYZ062>081-082-084-282100-
EAST


CITY           SKY/WX    TMP DP  RH WIND       PRES   REMARKS
ALBANY         PTSUNNY   58  23  26 E6        29.99F
GLENS FALLS    CLOUDY    54  24  31 NE12      30.00F
POUGHKEEPSIE   CLOUDY    60  21  22 W5        29.98F
NEWBURGH       PTSUNNY   57  19  23 SW6       30.00F
MONTGOMERY       N/A     57  27  31 MISG      29.98F
WHITE PLAINS   CLOUDY    54  35  48 S9        30.01F
ISLIP          CLOUDY    50  35  56 S12       30.04S
NEW YORK CITY  CLOUDY    54  33  45 S13G20    30.03F
CENTRAL PARK   PTSUNNY   55  31  39 VRB6      30.05F
$$

NYZ005>009-017-018-044>046-055-056-282100-
CENTRAL


CITY           SKY/WX    TMP DP  RH WIND       PRES   REMARKS
FULTON         CLOUDY    50  27  40 N8        30.03F
SYRACUSE       CLOUDY    54  20  26 CALM      29.99F
ROME           CLOUDY    56  23  27 W8        30.00F
ELMIRA         CLOUDY    54  22  28 S5        29.98F
BINGHAMTON     CLOUDY    52  17  25 CALM      29.97F
MONTICELLO     CLOUDY    55  19  24 SW7       29.98F
$$

NYZ026>034-041>043-087-282100-
NORTH


CITY           SKY/WX    TMP DP  RH WIND       PRES   REMARKS
WATERTOWN      CLOUDY    51  23  33 NE13      30.04F
FORT DRUM      NOT AVBL
MASSENA        CLOUDY    47  15  27 N8        30.11S
SARANAC LAKE   MOSUNNY   45  13  27 VRB5      29.99F
PLATTSBURGH    MOSUNNY   41  18  39 NE8       30.10S
$$

NYZ001>004-010>016-019>021-085-282100-
WEST


CITY           SKY/WX    TMP DP  RH WIND       PRES   REMARKS
NIAGARA FALLS  CLOUDY    50  28  42 NE13      30.00F
BUFFALO        CLOUDY    50  27  40 NE14      29.99F
DUNKIRK        CLOUDY    51  31  46 NE10G20   29.96F
JAMESTOWN      CLOUDY    45  30  57 SE12      29.95S
WELLSVILLE     CLOUDY    48  21  34 SE9       29.98F
ROCHESTER      CLOUDY    45  24  43 NE14      30.04S
PENN YAN       CLOUDY    51  21  30 CALM      30.01F
$$

             KEY
       WCI = WIND CHILL INDEX
       VSB = VISIBILITY
       HX  = HEAT INDEX
$$



USA.gov is the U.S. government's official web portal to all federal, state and local government web resources and services.